N0OQA Weather Reports


Display with metric or nautical units.
time (UTC)temp
F
wind
direction
speed
MPH
gust
MPH
rain 1hr
in
rain 24hr
in
rain mn
in
humidity
%
barometer
mb
20260901200637 87 226 2.0 5.0 0.00 0.00 0.00 33 1015.9
20260901195136 86 316 5.0 9.0 0.00 0.00 0.00 38 1016.1
20260901193634 86 300 3.0 4.0 0.00 0.00 0.00 38 1016.4
20260901184631 87 0 0.0 0.0 0.00 0.00 0.00 40 1016.5
20260901183630 86 0 0.0 0.0 0.00 0.00 0.00 40 1016.7
20260901175628 85 283 2.0 5.0 0.00 0.00 0.00 40 1017.1
20260901175128 84 0 0.0 0.0 0.00 0.00 0.00 44 1017.2
20260901172126 82 323 4.0 6.0 0.00 0.00 0.00 49 1017.3
20260901171125 80 146 2.0 3.0 0.00 0.00 0.00 52 1017.3
20260901154619 73 304 3.0 5.0 0.00 0.00 0.00 71 1017.6
20260901154118 73 314 3.0 5.0 0.00 0.00 0.00 71 1017.6
20260901152117 72 312 7.0 9.0 0.00 0.00 0.00 77 1017.5
20260901151616 71 342 6.0 7.0 0.00 0.00 0.00 78 1017.6
20260901151116 70 332 7.0 10.0 0.00 0.00 0.00 80 1017.6
20260901150616 70 322 5.0 7.0 0.00 0.00 0.00 83 1017.6
20260901145115 69 318 5.0 8.0 0.00 0.00 0.00 88 1017.6
20260901143114 67 318 6.0 9.0 0.00 0.00 0.00 97 1017.6
20260901142113 66 318 7.0 8.0 0.00 0.00 0.00 100 1017.6
20260901135111 65 0 0.0 0.0 0.00 0.00 0.00 100 1017.6
20260901133110 64 0 0.0 0.0 0.00 0.00 0.00 100 1017.5
20260901124606 60 0 0.0 0.0 0.00 0.00 0.00 100 1017.0
20260901120055 59 0 0.0 0.0 0.00 0.00 0.00 100 1016.5
20260901115554 59 0 0.0 0.0 0.00 0.00 0.00 100 1016.5
20260901110550 61 0 0.0 0.0 0.00 0.00 0.00 100 1015.9
20260901110050 60 0 0.0 0.0 0.00 0.00 0.00 100 1015.9
20260901104049 61 0 0.0 0.0 0.00 0.00 0.00 100 1016.0
20260901103048 61 0 0.0 0.0 0.00 0.00 0.00 100 1016.1
20260901102047 60 0 0.0 0.0 0.00 0.00 0.00 100 1016.1
20260901095046 61 0 0.0 0.0 0.00 0.00 0.00 100 1015.7
20260901092544 61 0 0.0 0.0 0.00 0.00 0.00 100 1015.6
20260901091037 61 0 0.0 0.0 0.00 0.00 0.00 100 1015.4
20260901083030 61 0 0.0 0.0 0.00 0.00 0.00 100 1015.3
20260901082029 62 0 0.0 0.0 0.00 0.00 0.00 100 1015.3
20260901081530 62 0 0.0 0.0 0.00 0.00 0.00 100 1015.4
20260901074521 62 0 0.0 0.0 0.00 0.00 0.00 100 1015.5
20260901073520 63 0 0.0 0.0 0.00 0.00 0.00 99 1015.6
20260901064507 63 0 0.0 0.0 0.00 0.00 0.00 97 1016.1
20260901062503 64 0 0.0 0.0 0.00 0.00 0.00 97 1016.1
20260901061958 64 0 0.0 0.0 0.00 0.00 0.00 96 1016.1
20260901061457 64 0 0.0 0.0 0.00 0.00 0.00 96 1016.0
20260901043936 66 0 0.0 0.0 0.00 0.00 0.00 91 1015.6
20260901034933 68 0 0.0 0.0 0.00 0.00 0.00 88 1015.5
20260901023428 70 0 0.0 0.0 0.00 0.00 0.00 82 1015.1
20260901020426 71 0 0.0 0.0 0.00 0.00 0.00 80 1014.9
20260901013424 73 0 0.0 0.0 0.00 0.00 0.00 77 1014.5
20260901005914 75 0 0.0 0.0 0.00 0.00 0.00 69 1014.4
20260901002912 78 0 0.0 0.0 0.00 0.00 0.00 62 1014.3
20260901000413 80 0 0.0 0.0 0.00 0.00 0.00 60 1014.1
20260831234401 82 0 0.0 0.0 0.00 0.00 0.00 57 1014.1
20260831223356 86 7 5.0 7.0 0.00 0.00 0.00 40 1014.0
20260831222355 86 21 5.0 7.0 0.00 0.00 0.00 40 1014.0
20260831221855 86 330 7.0 10.0 0.00 0.00 0.00 40 1014.0
20260831215354 87 304 6.0 8.0 0.00 0.00 0.00 37 1013.9
20260831212352 88 322 8.0 11.0 0.00 0.00 0.00 35 1013.7
20260831211351 87 326 4.0 6.0 0.00 0.00 0.00 34 1013.6
20260831210351 87 319 5.0 7.0 0.00 0.00 0.00 33 1013.7
20260831205850 86 319 8.0 13.0 0.00 0.00 0.00 34 1013.3